Regional Weather Roundup
Issued by NWS Bismarck, ND

Home | Current Version | Previous Version | Text Only | Print | Product List | Glossary On
Versions: 1 2 3 4 5 6 7 8 9 10 11 12 13 14 15 16 17 18 19 20 21 22 23 24 25 26 27 28 29 30 31 32 33 34 35 36 37 38 39 40 41 42 43 44 45 46 47 48 49 50
768
ASUS43 KBIS 241310
RWRBIS

NWR BROADCAST TEXT
NATIONAL WEATHER SERVICE BISMARCK ND
800 AM CDT SUN SEP 24 2017

NOTE: "FAIR" INDICATES FEW OR NO CLOUDS BELOW 12,000 FEET WITH NO
SIGNIFICANT WEATHER AND/OR OBSTRUCTIONS TO VISIBILITY.


CITY           SKY/WX    TMP DP  RH WIND       PRES   REMARKS
WILLISTON      LGT RAIN  44  42  93 N10       30.10S
MINOT          LGT RAIN  47  45  93 N13       30.03S
MINOT AFB      LGT RAIN  46  45  93 N10       30.03S
BISMARCK       RAIN      49  48  97 NW9       29.97S FOG
DICKINSON      CLOUDY    43  42  97 N9        30.03R
GARRISON         N/A     46  45  96 N8        30.01S
HETTINGER ARPT CLOUDY    44  42  93 N13       30.05R
JAMESTOWN      LGT RAIN  49  48  97 N13       29.88F
CARRINGTON     CLOUDY    48  46  93 N9G17     29.96R
LINTON         RAIN      48  48 100 N12       29.94R
TIOGA          PTSUNNY   43  43 100 N9        30.09R
$$

CITY           SKY/WX    TMP DP  RH WIND       PRES   REMARKS
GRAND FORKS    LGT RAIN  52  52 100 N13       29.89F
GRAND FORKS AF RAIN      50  50 100 N12       29.92S
DEVILS LAKE    LGT RAIN  47  46  97 N14       29.95F
FARGO          CLOUDY    57  56  96 N7        29.85F
CANDO          DRIZZLE   46  46 100 N13       29.99F
CAVALIER       LGT RAIN  50  50 100 N14G20    29.94S
GWINNER        CLOUDY    55  55 100 NE8       29.86R FOG
ROLLA          CLOUDY    45  46 100 N13       30.01F
WALHALLA       LGT RAIN N/A N/A N/A N16       29.96S
$$

CITY           SKY/WX    TMP DP  RH WIND       PRES   REMARKS
ABERDEEN       LGT RAIN  54  54 100 NE5       29.84F FOG
MOBRIDGE       RAIN      51  49  92 N9        29.90R FOG
BUFFALO          N/A     44  42  93 N10       29.98R
RAPID CITY     CLOUDY    45  43  93 N16       30.01S
GLASGOW        CLOUDY    47  40  76 CALM      30.11S
SIDNEY         LGT RAIN  43  41  93 N8        30.11S
WOLF POINT     CLOUDY    45  43  93 CALM      30.12S
GLENDIVE       LGT RAIN  42  41  96 N6        30.10F
MILES CITY     CLOUDY    42  40  92 N5        30.10S
BAKER          CLOUDY    41  39  93 N8        30.08R
$$

CITY           SKY/WX    TMP DP  RH WIND       PRES   REMARKS
BILLINGS       PTCLDY    39  37  92 CALM      30.10R
GREAT FALLS    CLEAR     31  28  89 SW8       30.09S
REGINA         MOCLDY    36  34  93 N3        30.13F
ESTEVAN        LGT RAIN  43  43 100 N8        30.10F
$$





USA.gov is the U.S. government's official web portal to all federal, state and local government web resources and services.